Weather History for KCBK - May, 2013

Change the Weather History Date:

Wednesday, May 1, 2013

  Actual Average (KGLD) Record (KGLD)
Temperature  
Mean Temperature 44 °F 54 °F  
Max Temperature 55 °F 68 °F 94 °F (1959)
Min Temperature 32 °F 40 °F 21 °F (1967)
Degree Days  
Heating Degree Days 22 11  
Month to date heating degree days 11  
Since 1 July heating degree days 5666  
Cooling Degree Days 0 0  
Month to date cooling degree days 0  
Year to date cooling degree days 4  
Moisture  
Dew Point 34 °F    
Average Humidity 92    
Maximum Humidity 100    
Minimum Humidity 38    
Precipitation  
Precipitation 0.00 in 0.07 in 2.15 in (1979)
Month to date precipitation 0.07  
Year to date precipitation 3.60  
Snow  
Snow 0.00 in 0.00 in - ()
Month to date snowfall 0.0  
Since 1 July snowfall 35.0  
Snow Depth -    
Sea Level Pressure  
Sea Level Pressure 30.22 in    
Wind  
Wind Speed 27 mph (North)    
Max Wind Speed 41 mph    
Max Gust Speed 51 mph    
Visibility 4 miles    
Events Rain , Snow    
T = Trace of Precipitation, MM = Missing Value Source: NWS Daily Summary

Daily Weather History Graph

Daily Weather History Graph

Search for Another Location

Airport or City:

Trip Planner

Search our weather history database for the weather conditions in past years. The results will help you decide how hot, cold, wet, or windy it might be!

Date:

Astronomy

May. 01, 2013 Rise Set
Actual Time 6:45 AM CDT 8:38 PM CDT
Civil Twilight 6:15 AM CDT 9:07 PM CDT
Nautical Twilight 5:40 AM CDT 9:42 PM CDT
Astronomical Twilight 5:02 AM CDT 10:20 PM CDT
Moon 1:48 AM CDT (5/1) 12:25 PM CDT (5/1)
Length of Visible Light 14h 51m
Length of Day
13h 53m
Waning Gibbous, 59% of the Moon is Illuminated
May 1
Waning Gibbous
May 2
Last Quarter
May 9
New
May 17
First Quarter
May 24
Full

Hourly Weather History & Observations

Time (CDT) Temp. Windchill Dew Point Humidity Pressure Visibility Wind Dir Wind Speed Gust Speed Precip Events Conditions
12:15 AM 55.4 °F - 30.2 °F 38% 29.87 in 10.0 mi NNE 26.5 mph 36.8 mph N/A   Overcast
12:35 AM 53.6 °F - 30.2 °F 41% 29.86 in 7.0 mi NNE 29.9 mph 38.0 mph N/A   Overcast
12:55 AM 53.6 °F - 28.4 °F 38% 29.86 in 7.0 mi NE 33.4 mph 50.6 mph N/A   Scattered Clouds
1:15 AM 51.8 °F - 32.0 °F 47% 29.88 in 10.0 mi NNE 41.4 mph 50.6 mph N/A   Mostly Cloudy
1:35 AM 50.0 °F - 32.0 °F 50% 29.91 in 7.0 mi NNE 33.4 mph 47.2 mph N/A   Overcast
1:55 AM 48.2 °F - 33.8 °F 58% 29.93 in 10.0 mi NNE 32.2 mph 42.6 mph N/A   Overcast
2:15 AM 46.4 °F 36.7 °F 33.8 °F 62% 29.95 in 10.0 mi NNE 33.4 mph 44.9 mph N/A   Overcast
2:35 AM 44.6 °F 33.6 °F 35.6 °F 71% 29.95 in 10.0 mi NNE 38.0 mph 43.7 mph N/A   Overcast
2:55 AM 44.6 °F 35.3 °F 35.6 °F 71% 29.95 in 10.0 mi NNE 26.5 mph 43.7 mph N/A   Overcast
3:15 AM 44.6 °F 34.7 °F 35.6 °F 71% 29.96 in 10.0 mi NNE 29.9 mph 47.2 mph N/A   Overcast
3:35 AM 42.8 °F 31.9 °F 35.6 °F 76% 29.98 in 10.0 mi NNE 32.2 mph 41.4 mph N/A   Overcast
3:55 AM 41.0 °F 29.5 °F 35.6 °F 81% 29.98 in 10.0 mi NNE 32.2 mph 43.7 mph N/A   Overcast
4:15 AM 41.0 °F 29.1 °F 35.6 °F 81% 29.98 in 10.0 mi NNE 34.5 mph 44.9 mph N/A   Overcast
4:35 AM 41.0 °F 30.9 °F 37.4 °F 87% 30.01 in 10.0 mi NNE 24.2 mph 38.0 mph N/A   Overcast
4:55 AM 41.0 °F 30.5 °F 37.4 °F 87% 30.02 in 10.0 mi NNE 26.5 mph 33.4 mph N/A   Overcast
5:15 AM 39.2 °F 29.6 °F 39.2 °F 100% 30.04 in 7.0 mi North 19.6 mph 32.2 mph N/A   Overcast
5:35 AM 37.4 °F 26.6 °F 37.4 °F 100% 30.07 in 5.0 mi North 21.9 mph 27.6 mph N/A   Drizzle
5:55 AM 37.4 °F 25.6 °F 37.4 °F 100% 30.07 in 4.0 mi North 26.5 mph - N/A   Drizzle
6:15 AM 37.4 °F 26.4 °F 37.4 °F 100% 30.08 in 3.0 mi North 23.0 mph 32.2 mph N/A Rain Light Rain
6:35 AM 37.4 °F 26.6 °F 37.4 °F 100% 30.07 in 4.0 mi NNE 21.9 mph 29.9 mph N/A Rain Light Rain
6:55 AM 37.4 °F 25.2 °F 37.4 °F 100% 30.09 in 5.0 mi North 28.8 mph 32.2 mph N/A Rain Light Rain
7:15 AM 37.4 °F 25.9 °F 37.4 °F 100% 30.11 in 3.0 mi NNE 25.3 mph 34.5 mph N/A Rain Light Rain
7:35 AM 37.4 °F 26.1 °F 37.4 °F 100% 30.13 in 4.0 mi NNE 24.2 mph 36.8 mph N/A Rain Light Rain
7:55 AM 35.6 °F 23.7 °F 35.6 °F 100% 30.14 in 3.0 mi North 24.2 mph 28.8 mph N/A Rain Light Rain
8:15 AM 35.6 °F 22.7 °F 35.6 °F 100% 30.15 in 2.0 mi NNE 28.8 mph 34.5 mph N/A Rain Light Rain
8:35 AM 35.6 °F 22.1 °F 35.6 °F 100% 30.17 in 1.5 mi NNE 32.2 mph 40.3 mph N/A Rain Light Rain
8:55 AM 35.6 °F 22.5 °F 35.6 °F 100% 30.18 in 1.8 mi NNE 29.9 mph - N/A Rain Light Rain
9:15 AM 35.6 °F 23.0 °F 35.6 °F 100% 30.19 in 1.5 mi NNE 27.6 mph 33.4 mph N/A Snow Light Snow
9:35 AM 35.6 °F 23.0 °F 35.6 °F 100% 30.20 in 1.5 mi NNE 27.6 mph 34.5 mph N/A Snow Light Snow
9:55 AM 35.6 °F 23.4 °F 35.6 °F 100% 30.20 in 2.0 mi NNE 25.3 mph 34.5 mph N/A Snow Light Snow
10:15 AM 35.6 °F 24.0 °F 35.6 °F 100% 30.21 in 2.5 mi NNE 23.0 mph 33.4 mph N/A Rain Light Rain
10:35 AM 35.6 °F 23.0 °F 35.6 °F 100% 30.22 in 2.0 mi NNE 27.6 mph 36.8 mph N/A Rain Light Rain
10:55 AM 35.6 °F 23.4 °F 35.6 °F 100% 30.23 in 1.8 mi North 25.3 mph 31.1 mph N/A Rain Light Rain
11:15 AM 35.6 °F 24.0 °F 35.6 °F 100% 30.24 in 2.0 mi NNE 23.0 mph 36.8 mph N/A Rain Light Rain
11:35 AM 35.6 °F 22.5 °F 35.6 °F 100% 30.25 in 1.8 mi NNE 29.9 mph 38.0 mph N/A Rain Light Rain
11:55 AM 35.6 °F 22.1 °F 35.6 °F 100% 30.25 in 2.5 mi NNE 32.2 mph 36.8 mph N/A Rain Light Rain
12:15 PM 35.6 °F 22.7 °F 35.6 °F 100% 30.26 in 1.5 mi NNE 28.8 mph 34.5 mph N/A Snow Light Snow
12:35 PM 35.6 °F 22.1 °F 35.6 °F 100% 30.25 in 2.5 mi NNE 32.2 mph 38.0 mph N/A Rain Light Rain
12:55 PM 37.4 °F 26.1 °F 37.4 °F 100% 30.25 in 4.0 mi NNE 24.2 mph 27.6 mph N/A   Overcast
1:15 PM 35.6 °F 22.7 °F 35.6 °F 100% 30.27 in 3.0 mi NNE 28.8 mph 34.5 mph N/A Rain Light Rain
1:35 PM 35.6 °F 23.4 °F 35.6 °F 100% 30.27 in 3.0 mi North 25.3 mph 32.2 mph N/A Rain Light Rain
1:55 PM 35.6 °F 23.7 °F 35.6 °F 100% 30.29 in 3.0 mi NNE 24.2 mph 32.2 mph N/A Rain Light Rain
2:15 PM 35.6 °F 23.4 °F 35.6 °F 100% 30.29 in 2.5 mi North 25.3 mph 31.1 mph N/A Rain Rain
2:35 PM 35.6 °F 23.2 °F 35.6 °F 100% 30.30 in 2.0 mi North 26.5 mph 32.2 mph N/A Rain Light Rain
2:55 PM 35.6 °F 23.2 °F 35.6 °F 100% 30.31 in 4.0 mi North 26.5 mph 32.2 mph N/A   Light Drizzle
3:15 PM 35.6 °F 23.2 °F 35.6 °F 100% 30.32 in 1.8 mi North 26.5 mph 34.5 mph N/A Rain Light Rain
3:35 PM 35.6 °F 24.0 °F 35.6 °F 100% 30.33 in 1.8 mi North 23.0 mph 31.1 mph N/A Rain Rain
3:55 PM 35.6 °F 23.2 °F 35.6 °F 100% 30.32 in 3.0 mi North 26.5 mph 33.4 mph N/A   Overcast
4:15 PM 35.6 °F 23.4 °F 35.6 °F 100% 30.33 in 3.0 mi North 25.3 mph 32.2 mph N/A   Light Drizzle
4:35 PM 33.8 °F 20.8 °F 33.8 °F 100% 30.33 in 2.0 mi North 26.5 mph 34.5 mph N/A Rain Light Rain
4:55 PM 33.8 °F 20.8 °F 33.8 °F 100% 30.34 in 2.0 mi North 26.5 mph 32.2 mph N/A Rain Light Rain
5:15 PM 33.8 °F 20.8 °F 33.8 °F 100% 30.34 in 2.5 mi North 26.5 mph 31.1 mph N/A   Overcast
5:35 PM 32.0 °F 19.8 °F 32.0 °F 100% 30.35 in 1.8 mi North 20.7 mph 31.1 mph N/A   Overcast
5:55 PM 32.0 °F 18.9 °F 32.0 °F 100% 30.36 in 2.0 mi North 24.2 mph 29.9 mph N/A   Overcast
6:15 PM 32.0 °F 18.9 °F 32.0 °F 100% 30.37 in 2.0 mi North 24.2 mph 28.8 mph N/A   Overcast
6:35 PM 32.0 °F 20.1 °F 32.0 °F 100% 30.39 in 5.0 mi North 19.6 mph 27.6 mph N/A   Overcast
6:55 PM 32.0 °F 21.6 °F 32.0 °F 100% 30.40 in 4.0 mi North 15.0 mph 21.9 mph N/A   Overcast
7:15 PM 32.0 °F 21.2 °F 32.0 °F 100% 30.42 in 2.5 mi North 16.1 mph 21.9 mph N/A   Overcast
7:35 PM 32.0 °F 22.1 °F 32.0 °F 100% 30.43 in 2.5 mi North 13.8 mph 20.7 mph N/A   Overcast
7:55 PM 32.0 °F 20.8 °F 32.0 °F 100% 30.43 in 2.0 mi North 17.3 mph - N/A   Overcast
8:15 PM 32.0 °F 21.2 °F 32.0 °F 100% 30.45 in 1.2 mi NNW 16.1 mph 21.9 mph N/A Snow Light Snow
8:35 PM 32.0 °F 21.6 °F 32.0 °F 100% 30.46 in 1.2 mi North 15.0 mph 23.0 mph N/A Snow Light Snow
8:55 PM 32.0 °F 20.5 °F 32.0 °F 100% 30.47 in 1.5 mi North 18.4 mph 21.9 mph N/A Snow Light Snow
9:15 PM 32.0 °F 20.8 °F 32.0 °F 100% 30.47 in 1.2 mi North 17.3 mph 23.0 mph N/A Snow Light Snow
9:35 PM 32.0 °F 20.8 °F 32.0 °F 100% 30.48 in 1.5 mi North 17.3 mph 23.0 mph N/A Snow Light Snow
9:55 PM 32.0 °F 20.8 °F 32.0 °F 100% 30.48 in 1.0 mi North 17.3 mph - N/A Snow Snow
10:35 PM 32.0 °F 20.1 °F 32.0 °F 100% 30.50 in 0.8 mi North 19.6 mph 25.3 mph N/A Snow Snow
10:55 PM 32.0 °F 20.8 °F 32.0 °F 100% 30.50 in 0.8 mi North 17.3 mph - N/A Snow Snow
11:15 PM 32.0 °F 20.8 °F 32.0 °F 100% 30.52 in 1.2 mi North 17.3 mph 21.9 mph N/A Snow Light Snow
11:35 PM 32.0 °F 19.8 °F 32.0 °F 100% 30.51 in 1.2 mi North 20.7 mph 25.3 mph N/A Snow Light Snow
11:55 PM 32.0 °F 20.1 °F 32.0 °F 100% 30.51 in 1.8 mi North 19.6 mph - N/A Snow Light Snow